This demonstration page uses our WeatherBlox Daily Observations layout. Learn more.

Left ArrowRight Arrow

Hourly Observations for March 17, 2020

Temp ( °F °C ) Dew Point ( °F °C ) Humidity (%) Winds ( mph kmh ) Pressure ( in mb ) Visibility ( mi km ) Precip ( " mm )
12:51 am 00:51 Clear 51 10.6 33 0.6 50 50 E 7 11 29.86 1011 10 16 0.00 0.00
1:51 am 01:51 Clear 49 9.4 33 0.6 55 55 ESE 6 9 29.85 1011 10 16 0.00 0.00
2:51 am 02:51 Clear 50 10 33 0.6 52 52 Calm 29.84 1011 10 16 0.00 0.00
3:51 am 03:51 Clear 46 7.8 33 0.6 61 61 S 3 6 29.83 1010 10 16 0.00 0.00
4:51 am 04:51 Clear 47 8.3 35 1.7 63 63 Calm 29.84 1011 10 16 0.00 0.00
5:51 am 05:51 Clear 45 7.2 34 1.1 66 66 Calm 29.86 1011 10 16 0.00 0.00
6:51 am 06:51 Sunny 46 7.8 35 1.7 66 66 Calm 29.88 1012 10 16 0.00 0.00
7:51 am 07:51 Sunny 50 10 36 2.2 59 59 SE 5 7 29.88 1012 10 16 0.00 0.00
8:51 am 08:51 Sunny 57 13.9 36 2.2 45 45 NW 6 9 29.88 1012 10 16 0.00 0.00
9:51 am 09:51 Sunny 64 17.8 35 1.7 34 34 SE 5 7 29.87 1012 10 16 0.00 0.00
10:51 am 10:51 Sunny 71 21.7 32 0 24 24 SSE 9 15 29.86 1011 10 16 0.00 0.00
11:51 am 11:51 Sunny 72 22.2 30 -1.1 21 21 VRB 7 11 29.83 1010 10 16 0.00 0.00
12:51 pm 12:51 Sunny 74 23.3 26 -3.3 17 17 SE 8 13 29.80 1009 10 16 0.00 0.00
1:51 pm 13:51 Sunny 76 24.4 23 -5 14 14 SW 9 15 29.77 1008 10 16 0.00 0.00
2:51 pm 14:51 Sunny 76 24.4 24 -4.4 14 14 undefined N/A 29.75 1008 10 16 0.00 0.00
3:51 pm 15:51 Sunny 77 25 23 -5 13 13 SSE 3 6 29.74 1007 10 16 0.00 0.00
4:51 pm 16:51 Sunny 74 23.3 24 -4.4 15 15 WSW 8 13 29.73 1007 10 16 0.00 0.00
5:51 pm 17:51 Sunny 74 23.3 21 -6.1 14 14 SSW 9 15 29.74 1007 10 16 0.00 0.00
6:51 pm 18:51 Clear 71 21.7 20 -6.7 14 14 SSW 9 15 29.76 1008 10 16 0.00 0.00
7:51 pm 19:51 Partly Cloudy 64 17.8 24 -4.4 22 22 WNW 8 13 29.79 1009 10 16 0.00 0.00
8:51 pm 20:51 Clear 62 16.7 29 -1.7 29 29 NNW 6 9 29.80 1009 10 16 0.00 0.00
9:51 pm 21:51 Clear 60 15.6 31 -0.6 33 33 WNW 8 13 29.80 1009 10 16 0.00 0.00
10:51 pm 22:51 Clear 58 14.4 33 0.6 39 39 NW 3 6 29.80 1009 10 16 0.00 0.00
11:51 pm 23:51 Clear 51 10.6 33 0.6 50 50 E 7 11 29.83 1010 10 16 0.00 0.00

Powered by AerisWeather